Regional Weather Roundup
Issued by NWS Albany, NY

Home | Current Version | Previous Version | Text Only | Print | Product List | Glossary On
Versions: 1 2 3 4 5 6 7 8 9 10 11 12 13 14 15 16 17 18 19 20 21 22 23 24 25 26 27 28 29 30 31 32 33 34 35 36 37 38 39 40 41 42 43 44 45 46 47 48 49 50
000
ASUS41 KALY 250110
RWRALY

NEW YORK STATE HOURLY WEATHER ROUNDUP
NATIONAL WEATHER SERVICE ALBANY NY
900 PM EDT TUE MAY 24 2016

NOTE: "FAIR" INDICATES FEW OR NO CLOUDS BELOW 12,000 FEET WITH NO
SIGNIFICANT WEATHER AND/OR NO OBSTRUCTIONS TO VISIBILITY.

NYZ032-033-038>043-046>054-057>066-NYZ062>081-082-084-250200-
EAST


CITY           SKY/WX    TMP DP  RH WIND       PRES   REMARKS
ALBANY         CLOUDY    61  55  81 E5        29.96R
GLENS FALLS    CLOUDY    62  56  80 SE3       29.95R
POUGHKEEPSIE   CLOUDY    63  59  87 CALM      29.95R
NEWBURGH       PTCLDY    64  55  72 VRB6      29.97S
MONTGOMERY     CLOUDY    61  55  81 CALM      29.97R
WHITE PLAINS   CLOUDY    61  58  90 CALM      29.96R
ISLIP          LGT RAIN  63  60  90 CALM      29.96R
NEW YORK CITY  CLOUDY    67  57  70 NE6       29.95R
CENTRAL PARK   CLOUDY    69  49  48 CALM      29.99R
$$

NYZ005>009-017-018-044>046-055-056-250200-
CENTRAL


CITY           SKY/WX    TMP DP  RH WIND       PRES   REMARKS
FULTON         CLEAR     61  41  47 CALM      29.94S
SYRACUSE       PTCLDY    67  29  24 W3        29.94S
ROME           CLEAR     63  31  30 NW7       29.95R
ELMIRA         CLEAR     59  44  57 CALM      29.98R
BINGHAMTON     CLEAR     67  39  35 NW6       29.99R
MONTICELLO     CLEAR     61  52  72 SE3       30.01R
$$

NYZ026>034-041>043-087-250200-
NORTH


CITY           SKY/WX    TMP DP  RH WIND       PRES   REMARKS
WATERTOWN      CLEAR     61  39  44 S5        29.92S
FORT DRUM      NOT AVBL
MASSENA        CLEAR     71  45  39 SW9       29.88R
SARANAC LAKE   CLEAR     67  37  33 VRB5      29.93R
PLATTSBURGH    CLOUDY    61  52  72 S6        29.87R
$$

NYZ001>004-010>016-019>021-085-250200-
WEST


CITY           SKY/WX    TMP DP  RH WIND       PRES   REMARKS
NIAGARA FALLS  MOCLDY    68  39  34 SW12      29.98R
BUFFALO        PTCLDY    62  44  51 SW12      30.00R
DUNKIRK        CLOUDY    64  38  38 SW6       30.02R
JAMESTOWN        N/A    N/A N/A N/A MISG        N/A
WELLSVILLE     CLEAR     62  37  39 W9        30.06R
ROCHESTER      PTCLDY    68  39  34 W10       29.98R
PENN YAN       CLEAR     59  46  62 CALM      29.99R
$$

             KEY
       WCI = WIND CHILL INDEX
       VSB = VISIBILITY
       HX  = HEAT INDEX
$$



USA.gov is the U.S. government's official web portal to all federal, state and local government web resources and services.